MDT,Max TemperatureF,Mean TemperatureF,Min TemperatureF,Max Dew PointF,MeanDew PointF,Min DewpointF,Max Humidity, Mean Humidity, Min Humidity, Max Sea Level PressureIn, Mean Sea Level PressureIn, Min Sea Level PressureIn, Max VisibilityMiles, Mean VisibilityMiles, Min VisibilityMiles, Max Wind SpeedMPH, Mean Wind SpeedMPH, Max Gust SpeedMPH,PrecipitationIn, CloudCover, Events, WindDirDegrees
2012-3-1,32,27,21,23,19,11,81,70,58,30.05,29.92,29.79,10,8,1,23,12,29,0.01,7,Snow,248
2012-3-2,31,24,16,19,16,12,92,73,53,30.39,30.32,30.09,10,10,9,25,15,32,T,2,,232
2012-3-3,41,34,27,31,25,16,70,64,58,30.43,30.38,30.34,10,10,10,26,16,32,0.00,5,,222
2012-3-4,52,43,34,30,28,25,82,62,41,30.38,30.29,30.12,10,10,10,20,13,25,0.00,1,,191
2012-3-5,59,43,27,30,26,21,78,54,30,30.10,29.91,29.57,10,10,10,24,12,30,0.00,1,,186
2012-3-6,52,39,26,30,21,12,85,58,30,29.92,29.66,29.48,10,9,1,36,17,44,T,7,Snow,249
2012-3-7,38,26,14,15,11,7,73,53,32,30.47,30.21,29.93,10,10,10,21,10,26,0.00,0,,311
2012-3-8,47,33,18,22,18,13,75,55,34,30.63,30.58,30.48,10,10,10,12,4,14,0.00,0,,227
2012-3-9,58,38,17,28,22,14,92,60,28,30.61,30.43,30.20,10,10,10,9,3,13,0.00,0,,336
2012-3-10,60,39,17,27,22,15,92,57,22,30.19,30.01,29.79,10,10,10,13,4,17,0.00,0,,76
2012-3-11,59,44,28,32,25,15,76,50,24,29.80,29.72,29.64,10,10,10,22,10,36,T,2,,232
2012-3-12,58,43,27,30,26,19,85,56,26,29.94,29.83,29.71,10,10,10,25,8,33,0.00,1,,210
2012-3-13,57,51,45,32,24,20,54,40,26,29.81,29.70,29.63,10,10,7,33,19,47,T,6,Rain,195
2012-3-14,54,46,37,41,37,32,93,74,54,30.07,29.94,29.81,10,10,6,24,9,31,0.13,7,Rain,219
2012-3-15,64,50,35,41,37,33,92,64,36,30.07,30.01,29.87,10,10,10,21,6,25,T,7,Rain,171
2012-3-16,57,49,41,43,40,37,96,74,51,29.84,29.76,29.60,10,10,4,22,7,26,0.14,7,Rain,198
2012-3-17,53,43,32,40,35,32,100,77,54,29.58,29.50,29.38,10,8,1,36,9,47,0.17,7,Rain-Snow,200
2012-3-18,42,36,30,36,32,28,100,90,79,29.52,29.41,29.34,10,6,0,22,8,25,0.45,8,Fog-Rain-Snow,223
2012-3-19,39,31,23,28,22,14,92,66,40,30.02,29.73,29.50,10,10,10,30,20,39,T,6,,235
2012-3-20,45,35,25,26,15,9,60,47,33,30.16,30.09,30.01,10,10,10,24,14,30,0.00,3,,185
2012-3-21,59,50,40,32,29,26,57,47,36,30.10,30.03,29.95,10,10,10,23,13,29,0.00,4,,175
2012-3-22,69,55,40,30,28,26,60,41,22,29.95,29.82,29.72,10,10,10,28,10,35,0.00,0,,172
2012-3-23,65,52,39,37,31,27,70,48,26,29.96,29.80,29.66,10,10,10,31,12,39,0.00,1,,219
2012-3-24,70,48,26,34,28,23,92,55,17,30.05,29.92,29.78,10,10,10,26,8,33,0.00,0,,165
2012-3-25,69,57,44,31,27,23,46,33,19,29.78,29.69,29.55,10,10,10,32,12,41,0.00,0,,151
2012-3-26,54,46,37,39,33,26,92,67,42,30.01,29.73,29.52,10,9,2,36,14,45,0.19,5,Rain,204
2012-3-27,59,46,33,30,27,24,70,50,30,30.08,29.99,29.85,10,10,10,20,9,24,0.00,2,,174
2012-3-28,54,45,35,39,32,24,86,61,35,30.04,29.90,29.78,10,10,10,25,11,30,0.05,5,Rain,239
2012-3-29,50,39,28,40,32,25,93,73,53,30.07,30.03,29.96,10,10,10,17,5,21,0.01,5,Rain,250
2012-3-30,59,50,41,45,40,37,93,74,55,29.97,29.92,29.83,10,10,10,20,6,25,0.01,6,Rain,257
2012-3-31,73,58,43,41,33,25,76,48,19,29.81,29.55,29.27,10,7,2,33,18,56,T,5,Rain,175